Weather observations for the past three days for
Ft. Polk - Peason Ridge
| Date | Time (cdt) | Wind (mph) | Vis. (mi.) | Weather | Sky Cond. | Temperature (ºF) | Relative Humidity | Wind Chill (°F) | Heat Index (°F) | Pressure | Precipitation (in) | ||||||
|---|---|---|---|---|---|---|---|---|---|---|---|---|---|---|---|---|---|
| Air | Dwpt | 6 hour | altimeter (in) | sea level (mb) | 1 hr | 3 hr | 6 hr | ||||||||||
| Max. | Min. | ||||||||||||||||
| 05 | 05:47 | Calm | 7.00 | Fair | CLR | 75 | 73.9 | 96% | 73 | 29.93 | 1013.1 | ||||||
| 05 | 04:47 | Calm | 7.00 | Fair | CLR | 75 | 73.9 | 96% | 73 | 29.92 | 1012.8 | ||||||
| 05 | 03:47 | Calm | 9.00 | Fair | CLR | 75.9 | 73.9 | 94% | 75 | 29.92 | 1012.8 | ||||||
| 05 | 02:47 | Calm | 10.00 | Fair | CLR | 75.9 | 73.9 | 94% | 75 | 29.92 | 1012.8 | ||||||
| 05 | 01:47 | Calm | 10.00 | Fair | CLR | 77 | 73.9 | 90% | 78 | 29.93 | 1012.9 | ||||||
| 05 | 00:47 | Calm | 10.00 | Fair | CLR | 77 | 73.9 | 87.1 | 75.9 | 90% | 78 | 29.93 | 1013.0 | ||||
| 04 | 23:47 | Calm | 10.00 | Fair | CLR | 77 | 73.9 | 90% | 78 | 29.94 | 1013.4 | ||||||
| 04 | 22:47 | Calm | 10.00 | Fair | CLR | 79 | 73.9 | 85% | 83 | 29.95 | 1013.7 | ||||||
| 04 | 21:47 | Calm | 10.00 | Fair | CLR | 79 | 73.9 | 85% | 83 | 29.94 | 1013.6 | ||||||
| 04 | 20:47 | Calm | 10.00 | Fair | CLR | 79 | 75 | 88% | 83 | 29.93 | 1013.1 | ||||||
| 04 | 19:47 | Calm | 10.00 | Fair | CLR | 82 | 75 | 79% | 89 | 29.92 | 1012.7 | ||||||
| 04 | 18:47 | Calm | 10.00 | Fair | CLR | 87.1 | 73 | 96.1 | 86 | 63% | 95 | 29.92 | 1012.8 | ||||
| 04 | 17:47 | Calm | 10.00 | Fair | CLR | 86 | 73 | 65% | 93 | 29.9 | 1012.1 | ||||||
| 04 | 16:47 | Calm | 10.00 | A Few Clouds | FEW060 FEW095 | 91 | 72 | 54% | 99 | 29.89 | 1011.8 | ||||||
| 04 | 15:47 | Calm | 10.00 | Fair | CLR | 95 | 69.1 | 43% | 101 | 29.9 | 1012.0 | ||||||
| 04 | 14:47 | Vrbl 3 | 10.00 | A Few Clouds | FEW085 | 93.9 | 69.1 | 44% | 99 | 29.93 | 1013.0 | ||||||
| 04 | 13:47 | Vrbl 3 | 10.00 | Mostly Cloudy | FEW060 BKN090 | 93 | 71.1 | 49% | 100 | 29.95 | 1013.9 | ||||||
| 04 | 12:47 | Vrbl 3 | 10.00 | A Few Clouds | FEW046 | 90 | 71.1 | 91.9 | 71.1 | 54% | 96 | 29.97 | 1014.6 | ||||
| 04 | 11:47 | Vrbl 5 | 10.00 | Mostly Cloudy | BKN038 | 89.1 | 72 | 57% | 96 | 29.99 | 1015.3 | ||||||
| 04 | 10:47 | Calm | 10.00 | Fair | CLR | 87.1 | 73 | 63% | 95 | 30 | 1015.5 | ||||||
| 04 | 09:47 | Calm | 10.00 | Fair | CLR | 84 | 73.9 | 72% | 91 | 30 | 1015.4 | ||||||
| 04 | 08:47 | Calm | 9.00 | Fair | CLR | 80.1 | 75 | 85% | 85 | 29.99 | 1015.3 | ||||||
| 04 | 07:47 | Calm | 4.00 | Fog/Mist | CLR | 72 | 71.1 | 97% | 29.98 | 1015.0 | |||||||
| 04 | 06:47 | Calm | 5.00 | Fog/Mist | CLR | 71.1 | 70 | 73 | 71.1 | 96% | 29.97 | 1014.5 | |||||
| 04 | 05:47 | Calm | 5.00 | Fog/Mist | CLR | 71.1 | 71.1 | 100% | 29.96 | 1014.2 | |||||||
| 04 | 04:47 | Calm | 6.00 | Fog/Mist | CLR | 72 | 72 | 100% | 29.96 | 1014.1 | |||||||
| 04 | 03:47 | Calm | 5.00 | Fog/Mist | CLR | 72 | 72 | 100% | 29.95 | 1013.7 | |||||||
| 04 | 02:47 | Calm | 5.00 | Fog/Mist | CLR | 73 | 73 | 100% | 29.95 | 1013.7 | |||||||
| 04 | 01:47 | Calm | 6.00 | Fog/Mist | CLR | 73 | 73 | 100% | 29.95 | 1013.7 | |||||||
| 04 | 00:47 | Calm | 5.00 | Fog/Mist | CLR | 73 | 73 | 82.9 | 73 | 100% | 29.94 | 1013.5 | |||||
| 03 | 23:47 | Calm | 7.00 | Fair | CLR | 73.9 | 73 | 97% | 29.93 | 1013.2 | |||||||
| 03 | 22:47 | Calm | 9.00 | Fair | CLR | 73.9 | 73 | 97% | 29.94 | 1013.3 | |||||||
| 03 | 21:47 | Calm | 9.00 | Fair | CLR | 75 | 73 | 94% | 73 | 29.93 | 1013.2 | ||||||
| 03 | 20:47 | Calm | 10.00 | Fair | CLR | 75.9 | 73.9 | 94% | 75 | 29.93 | 1013.3 | ||||||
| 03 | 19:47 | Calm | 10.00 | Fair | CLR | 79 | 73.9 | 85% | 83 | 29.92 | 1012.9 | ||||||
| 03 | 18:47 | Calm | 10.00 | Fair | CLR | 82.9 | 73 | 91 | 82 | 72% | 89 | 29.91 | 1012.4 | ||||
| 03 | 17:47 | Vrbl 3 | 10.00 | Fair | CLR | 84 | 72 | 67% | 90 | 29.92 | 1012.8 | ||||||
| 03 | 16:47 | Calm | 10.00 | Fair | CLR | 84 | 73 | 70% | 90 | 29.93 | 1013.2 | ||||||
| 03 | 15:47 | Calm | 10.00 | Fair | CLR | 82.9 | 71.1 | 67% | 88 | 29.94 | 1013.6 | ||||||
| 03 | 14:47 | Calm | 10.00 | Partly Cloudy | FEW046 SCT060 | 84.9 | 71.1 | 63% | 90 | 29.96 | 1014.0 | ||||||
| 03 | 13:47 | Vrbl 3 | 10.00 | Mostly Cloudy | SCT080 BKN100 | 89.1 | 73 | 59% | 97 | 29.98 | 1014.7 | ||||||
| 03 | 12:47 | Calm | 10.00 | Partly Cloudy | FEW040 SCT075 SCT120 | 82.9 | 75.9 | 88 | 73 | 79% | 91 | 29.99 | 1015.2 | 0.01 | 0.15 | ||
| 03 | 11:47 | S 3 | 8.00 | Light Rain | FEW047 SCT060 BKN090 | 80.1 | 78.1 | 94% | 86 | 30 | 1015.6 | 0.11 | |||||
| 03 | 10:47 | SW 5 | 2.00 | Heavy Rain | BKN030 BKN038 BKN045 | 82.9 | 75.9 | 79% | 91 | 30 | 1015.5 | 0.03 | |||||
| 03 | 09:47 | Vrbl 3 | 10.00 | Partly Cloudy | SCT015 SCT021 | 84.9 | 77 | 77% | 95 | 30 | 1015.5 | ||||||
| 03 | 08:47 | Calm | 10.00 | Fair | CLR | 81 | 77 | 88% | 88 | 30.01 | 1015.8 | ||||||
| 03 | 07:47 | Calm | 6.00 | Fog/Mist | CLR | 75 | 75 | 100% | 72 | 30.01 | 1015.8 | ||||||
| 03 | 06:47 | Calm | 5.00 | Fog/Mist | FEW014 | 73 | 73 | 75.9 | 73 | 100% | 29.99 | 1015.2 | |||||
| 03 | 05:47 | Calm | 5.00 | Fog/Mist | CLR | 73 | 73 | 100% | 29.98 | 1014.7 | |||||||
| 03 | 04:47 | Calm | 6.00 | Fog/Mist | CLR | 73.9 | 73 | 97% | 29.97 | 1014.3 | |||||||
| 03 | 03:47 | Calm | 5.00 | Fog/Mist | CLR | 73.9 | 73 | 97% | 29.97 | 1014.4 | |||||||
| 03 | 02:47 | Calm | 5.00 | Fog/Mist | CLR | 73.9 | 73.9 | 100% | 29.96 | 1014.3 | |||||||
| 03 | 01:47 | Calm | 7.00 | Fair | CLR | 75 | 75 | 100% | 72 | 29.98 | 1014.8 | ||||||
| 03 | 00:47 | Vrbl 3 | 8.00 | Fair | CLR | 75.9 | 75 | 82 | 75.9 | 97% | 75 | 29.98 | 1014.7 | ||||
| 02 | 23:47 | Calm | 6.00 | Fog/Mist | CLR | 75.9 | 75 | 97% | 75 | 29.98 | 1014.7 | ||||||
| 02 | 22:47 | Calm | 9.00 | Fair | CLR | 77 | 75.9 | 96% | 78 | 29.99 | 1015.0 | ||||||
| 02 | 21:47 | Calm | 10.00 | Fair | CLR | 77 | 75.9 | 96% | 78 | 30 | 1015.5 | ||||||
| 02 | 20:47 | Calm | 10.00 | Fair | CLR | 79 | 75.9 | 90% | 83 | 29.97 | 1014.4 | ||||||
| 02 | 19:47 | Calm | 10.00 | Fair | CLR | 80.1 | 75.9 | 87% | 85 | 29.96 | 1014.1 | ||||||
| 02 | 18:47 | Calm | 10.00 | Fair | CLR | 82 | 75 | 87.1 | 82 | 79% | 89 | 29.97 | 1014.5 | ||||
| 02 | 17:47 | Calm | 10.00 | Fair | CLR | 84 | 73.9 | 72% | 91 | 29.97 | 1014.5 | ||||||
| 02 | 16:47 | Vrbl 5 | 10.00 | Fair | CLR | 84.9 | 73.9 | 70% | 92 | 29.96 | 1014.1 | ||||||
| 02 | 15:47 | Vrbl 3 | 10.00 | Fair | CLR | 87.1 | 71.1 | 59% | 93 | 29.98 | 1015.0 | ||||||
| 02 | 14:47 | S 5 | 10.00 | Fair | CLR | 84.9 | 72 | 65% | 91 | 30 | 1015.6 | ||||||
| 02 | 13:47 | Vrbl 3 | 10.00 | A Few Clouds | FEW049 FEW060 | 84 | 73 | 70% | 90 | 30.01 | 1015.7 | ||||||
| 02 | 12:47 | Vrbl 6 | 10.00 | Mostly Cloudy | BKN023 BKN029 | 82.9 | 73.9 | 86 | 78.1 | 74% | 89 | 30.02 | 1016.2 | ||||
| 02 | 11:47 | Calm | 10.00 | Mostly Cloudy | FEW018 SCT025 BKN110 | 84.9 | 78.1 | 80% | 97 | 30.03 | 1016.7 | ||||||
| 02 | 10:47 | Calm | 10.00 | Mostly Cloudy | BKN016 BKN027 | 84 | 78.1 | 82% | 95 | 30.04 | 1016.7 | ||||||
| 02 | 09:47 | Calm | 10.00 | Partly Cloudy | SCT010 SCT018 | 82 | 78.1 | 88% | 91 | 30.02 | 1016.2 | ||||||
| 02 | 08:47 | Vrbl 3 | 10.00 | A Few Clouds | FEW008 | 80.1 | 77 | 90% | 86 | 30.02 | 1016.1 | ||||||
| 02 | 07:47 | Calm | 9.00 | Partly Cloudy | FEW005 SCT027 | 78.1 | 75.9 | 93% | 81 | 30 | 1015.7 | ||||||
| 02 | 06:47 | Calm | 6.00 | Fog/Mist | OVC003 | 77 | 75.9 | 78.1 | 75.9 | 96% | 78 | 29.99 | 1015.3 | ||||
| Date | Time (cdt) | Wind (mph) | Vis. (mi.) | Weather | Sky Cond. | Air | Dwpt | Max. | Min. | Relative Humidity | Wind Chill (°F) | Heat Index (°F) | altimeter (in) | sea level (mb) | 1 hr | 3 hr | 6 hr |
| 6 hour | |||||||||||||||||
| Temperature (ºF) | Pressure | Precipitation (in) | |||||||||||||||